Regional Weather Roundup
Issued by NWS

Home | Current Version | Previous Version | Graphics & Text | Print | Product List | Glossary On
Versions: 1 2 3 4 5 6 7 8 9 10 11 12 13 14 15 16 17 18 19 20 21 22 23 24 25 26 27 28 29 30 31 32 33 34 35 36 37 38 39 40 41 42 43 44 45 46 47 48 49 50
000
ASUS43 KOAX 261202
RWRNE

WEATHER ROUNDUP FOR NEBRASKA
NATIONAL WEATHER SERVICE OMAHA NE
700 AM CDT TUE JUL 26 2016

NOTES: SATELLITE DATA IS BEING USED TO AUGMENT CLOUD COVER ABOVE
       12000 FEET.
       "FAIR" INDICATES FEW OR NO CLOUDS BELOW 12,000 FEET WITH NO
       SIGNIFICANT WEATHER AND/OR OBSTRUCTIONS TO VISIBILITY.

  * THESE STATIONS DO NOT REPORT WEATHER SUCH AS RAIN...SNOW OR FOG.

NEZ001>004-019>022-054>056-261300-
NEBRASKA PANHANDLE

CITY           SKY/WX    TMP DP  RH WIND       PRES   REMARKS
SCOTTSBLUFF    CLEAR     63  61  93 SE9       30.05S
6HR MIN TEMP:  63; 6HR MAX TEMP:  71;

ALLIANCE       CLEAR     63  62  97 S13       30.07R
6HR MIN TEMP:  63; 6HR MAX TEMP:  70;

CHADRON        CLEAR     70  61  73 CALM      29.98F
6HR MIN TEMP:  70; 6HR MAX TEMP:  78;

SIDNEY         CLEAR     64  63  96 S12       30.12S FOG
6HR MIN TEMP:  61; 6HR MAX TEMP:  71;

$$

NEZ057>060-069>072-079>082-261300-
SOUTHWEST NEBRASKA

CITY           SKY/WX    TMP DP  RH WIND       PRES   REMARKS
NORTH PLATTE   CLEAR     65  64  97 SE5       30.11S
6HR MIN TEMP:  63; 6HR MAX TEMP:  72;

IMPERIAL       PTCLDY    66  64  93 S9        30.11S
6HR MIN TEMP:  65; 6HR MAX TEMP:  69;

LEXINGTON      CLEAR     62  60  94 CALM      30.11S FOG
MCCOOK         CLEAR     64  62  93 S5        30.11R
6HR MIN TEMP:  64; 6HR MAX TEMP:  72;

OGALLALA       CLEAR     67  64  90 CALM      30.11R
$$

NEZ005>010-023>029-035>040-094-261300-
NORTH CENTRAL NEBRASKA

CITY           SKY/WX    TMP DP  RH WIND       PRES   REMARKS
VALENTINE      CLEAR     69  63  81 S14       30.05S
6HR MIN TEMP:  68; 6HR MAX TEMP:  74;

AINSWORTH      CLEAR     65  62  87 S10       30.08S
BROKEN BOW     CLEAR     62  61  96 S3        30.11S
6HR MIN TEMP:  60; 6HR MAX TEMP:  68;

O`NEILL        CLEAR     65  62  88 S7        30.08R
ORD            CLEAR     62  59  90 E3        30.08S
6HR MIN TEMP:  60; 6HR MAX TEMP:  72;

THEDFORD       CLEAR     67  65  93 S8        30.10S
$$

NEZ041-046>049-061>064-073>077-083>087-261300-
SOUTH CENTRAL NEBRASKA

CITY           SKY/WX    TMP DP  RH WIND       PRES   REMARKS
GRAND ISLAND   CLEAR     62  59  90 CALM      30.10S
6HR MIN TEMP:  61; 6HR MAX TEMP:  70;

AURORA         CLEAR     58  58  99 CALM      30.10S
HASTINGS       CLEAR     64  59  83 CALM      30.11R
6HR MIN TEMP:  63; 6HR MAX TEMP:  72;

HEBRON         CLEAR     59  58  96 CALM      30.09S
HOLDREGE       CLEAR     63  60  92 CALM      30.10S
KEARNEY *      CLEAR     63  57  82 CALM      30.11S
YORK           CLEAR     61  59  94 CALM      30.10S
$$

NEZ011>018-030>034-042>045-261300-
NORTHEAST NEBRASKA

CITY           SKY/WX    TMP DP  RH WIND       PRES   REMARKS
NORFOLK        CLEAR     60  59  96 CALM      30.08S
6HR MIN TEMP:  59; 6HR MAX TEMP:  70;

ALBION         CLEAR     60  58  91 SE3       30.09F
BLAIR          CLEAR     67  65  91 CALM      30.09F
FREMONT        CLEAR     64  63  95 CALM      30.10S
TEKAMAH        PTCLDY    61  59  93 CALM      30.08F
6HR MIN TEMP:  59; 6HR MAX TEMP:  68;

WAYNE          CLEAR     62  61  96 SW3       30.09S
$$

NEZ050>053-065>068-078-088>093-261300-
SOUTHEAST NEBRASKA

CITY           SKY/WX    TMP DP  RH WIND       PRES   REMARKS
LINCOLN        CLEAR     63  61  93 CALM      30.09S
6HR MIN TEMP:  62; 6HR MAX TEMP:  68;

OMAHA EPPLEY   CLEAR     67  64  90 CALM      30.08F
6HR MIN TEMP:  64; 6HR MAX TEMP:  73;

BEATRICE       CLEAR     62  61  94 CALM      30.09S
FALLS CITY     PTCLDY    68  65  90 CALM      30.07S
6HR MIN TEMP:  63; 6HR MAX TEMP:  72;

NEBRASKA CITY  FOG       66  66 100 CALM      30.10R VSB 1/4
PLATTSMOUTH    CLEAR     66  65  98 E3        30.10R
$$

NEZ044-045-051>053-067-261300-
OMAHA AREA

CITY           SKY/WX    TMP DP  RH WIND       PRES   REMARKS
OMAHA EPPLEY   CLEAR     67  64  90 CALM      30.08F
6HR MIN TEMP:  64; 6HR MAX TEMP:  73;

BLAIR          CLEAR     67  65  91 CALM      30.09F
FREMONT        CLEAR     64  63  95 CALM      30.10S
MILLARD        CLEAR     66  65  96 CALM      30.09S FOG
PLATTSMOUTH    CLEAR     66  65  98 E3        30.10R
WAHOO          FAIR      62  61  95 CALM      30.09S FOG
$$




USA.gov is the U.S. government's official web portal to all federal, state and local government web resources and services.